Location: Monsanto
(38.0260°N, 122.0555°W)
Time: 15:47:08
(UTC+00:00)

Envisat - Visible Passes

Search period start: 23 July 2024 00:00
Search period end: 02 August 2024 00:00
Orbit: 762 x 764 km, 98.3° (Epoch: 23 July)

Date Brightness Start Highest point End Pass type
(mag) Time Alt. Az. Time Alt. Az. Time Alt. Az.
23 Jul 5.6 09:57:28 10° ENE 09:59:02 11° E 10:00:37 10° ESE visible
23 Jul 3.0 11:33:26 10° N 11:38:29 73° WNW 11:42:15 18° SSW visible
24 Jul 3.7 10:56:11 10° NNE 11:01:05 48° E 11:04:21 20° SSE visible
24 Jul 4.6 12:36:09 10° NNW 12:39:38 19° WNW 12:43:08 10° WSW visible
25 Jul 5.0 10:19:44 10° NE 10:23:29 21° E 10:26:28 13° SE visible
25 Jul 3.5 11:57:49 10° N 12:02:34 42° WNW 12:06:36 14° SW visible
26 Jul 3.0 11:20:12 10° NNE 11:25:18 84° ESE 11:28:43 21° S visible
27 Jul 4.2 10:43:11 10° NNE 10:47:50 35° E 10:50:49 19° SSE visible
27 Jul 4.2 12:22:30 10° NNW 12:26:35 25° WNW 12:30:38 10° WSW visible
28 Jul 5.4 10:07:15 10° ENE 10:10:09 15° E 10:12:55 10° SE visible
28 Jul 3.2 11:44:28 10° N 11:49:26 56° WNW 11:53:03 18° SW visible
29 Jul 3.3 11:07:02 10° NNE 11:12:05 63° ESE 11:15:10 23° S visible
30 Jul 4.7 10:30:17 10° NE 10:34:32 26° E 10:37:16 17° SE visible
30 Jul 3.9 12:08:59 10° N 12:13:28 32° WNW 12:17:24 13° SW visible
31 Jul 5.6 09:55:31 10° ENE 09:56:47 11° E 09:58:03 10° ESE visible
31 Jul 2.9 11:31:11 10° N 11:36:15 75° WNW 11:39:30 23° SSW visible
01 Aug 3.8 10:53:57 10° NNE 10:58:50 46° E 11:01:35 24° SSE visible
01 Aug 4.5 12:33:51 10° NNW 12:37:25 20° WNW 12:40:59 10° WSW visible
